Regional Weather Roundup
Issued by NWS

Home | Current Version | Previous Version | Graphics & Text | Print | Product List | Glossary On
Versions: 1 2 3 4 5 6 7 8 9 10 11 12 13 14 15 16 17 18 19 20 21 22 23 24 25 26 27 28 29 30 31 32 33 34 35 36 37 38 39 40 41 42 43 44 45 46 47 48 49 50
221
ASUS45 KSLC 280310
RWRUT

UTAH REGIONAL WEATHER ROUNDUP
NATIONAL WEATHER SERVICE SALT LAKE CITY UT
900 PM MDT THU JUL 27 2017

UTZ001>011-023>025-280400-

NORTHERN UTAH

CITY           SKY/WX    TMP DP  RH WIND       PRES   REMARKS
BRIGHAM CITY   CLEAR     81  44  26 CALM      30.07F
HILL AFB       CLEAR     81  50  34 N5        30.10S
LOGAN          CLEAR     74  58  57 CALM      30.11S
OGDEN          CLEAR     81  50  33 NE7       30.06S
SALT LAKE CITY PTCLDY    85  47  26 N7        30.05R
TOOELE VALLEY  CLEAR     75  59  57 SW5       30.06S
WENDOVER       PTCLDY    86  50  28 S10       30.04R
HEBER CITY     CLEAR     77  45  31 SE3       30.14S
WEST JORDAN    CLEAR     80  60  50 NW5       30.09S

$$

UTZ011>015-024>027-280400-

CENTRAL/NORTHEAST UTAH

CITY           SKY/WX    TMP DP  RH WIND       PRES   REMARKS
PROVO AIRPORT  PTCLDY    82  55  39 NW8       30.07S
MOAB/CANYONLAN PTCLDY    89  51  27 W6        29.98R
DELTA          PTCLDY    82  41  23 N6        30.06S
PRICE          PTCLDY    82  47  29 NW8       30.14R
RICHFIELD      MOCLDY    79  57  47 CALM      30.12R
ROOSEVELT      CLEAR     82  43  24 W7        30.10R
VERNAL         CLEAR     79  51  37 N7        30.10R

$$

UTZ013>016-019>022-027-280400-

SOUTHERN UTAH

CITY           SKY/WX    TMP DP  RH WIND       PRES   REMARKS
BRYCE CANYON   CLOUDY    70  54  56 W5        30.31R
CEDAR CITY     MOCLDY    78  55  44 SW7       30.13S
MILFORD        MOCLDY    86  50  28 SW8       30.06R
ST GEORGE      CLEAR     95  54  25 W7        29.91R HX  93
HANKSVILLE     MOCLDY    88  45  22 W5        30.02R
KANAB          CLEAR     79  54  41 W2        30.12R
BLANDING       MOCLDY    78  49  35 E6        30.21R

$$

REGIONAL REPORTS     COLORADO/ARIZONA

CITY           SKY/WX    TMP DP  RH WIND       PRES   REMARKS
CRAIG, CO      CLEAR     69  53  56 E3        30.19R
GRAND JUNCTION PTCLDY    88  50  27 N8        30.02R
RIFLE, CO      CLOUDY    81  53  37 CALM      30.09R
MONTROSE, CO   CLEAR     77  52  41 E3        30.13R
CORTEZ, CO     CLOUDY    77  49  37 N8        30.15R
COLORADO CITY    N/A     84  52  32 W5        30.11S
PAGE, AZ       CLOUDY    88  56  33 S9        30.01R
GRAND CANYON   CLOUDY    71  56  58 S3        30.27R
KINGMAN, AZ    CLEAR     89  56  32 NE5       29.98R
FLAGSTAFF, AZ  CLOUDY    60  58  92 CALM      30.31R

$$

REGIONAL REPORTS    NEVADA/IDAHO/WYOMING

CITY           SKY/WX    TMP DP  RH WIND       PRES   REMARKS
LAS VEGAS, NV  PTCLDY   101  53  20 E8        29.83R HX  99
ELY, NY        CLEAR     70  48  45 W6        30.20S
ELKO, NV       CLEAR     82  35  18 NW6       30.10R
POCATELLO, ID  CLEAR     70  55  59 E8        30.13S
BURLEY, ID     CLEAR     76  50  40 CALM      30.07R
FORT BRIDGER,    N/A     68  43  39 NW6       30.31R
EVANSTON, WY   CLEAR     66  47  50 N9        30.30R
ROCK SPRINGS,  CLOUDY    72  43  35 NW13      30.23R
KEMMERER, WY     N/A     63  41  45 NW3       30.30S

$$




USA.gov is the U.S. government's official web portal to all federal, state and local government web resources and services.